Simultaneous Nadir Overpasses (SNOs) Predictions

Prediction of SNOs near equator between AQUA and NPP Satellite Orbit:

Table of predicted SNOs near equator for the next 14.0 days since TLE Epoch: 12/6/2019
Index Date (AQUA) Time (AQUA) AQUA Lat,Lon Date (NPP) Time (NPP) NPP Lat,Lon Distance(km) Time Diff (sec)
1 12/08/2019 07:55:42 16.98, 82.41 12/08/2019 07:45:42 17.02, 82.13 30.65 600
2 12/08/2019 08:40:58 -2.09,-106.69 12/08/2019 08:32:07 -2.01,-107.11 47.13 531
3 12/08/2019 09:29:12 -2.54, 61.91 12/08/2019 09:21:37 -2.67, 61.23 77.36 455
4 12/11/2019 00:08:56 5.20,-159.14 12/10/2019 23:59:13 5.17,-159.38 26.78 583
5 12/11/2019 00:57:04 -0.70, 9.48 12/11/2019 00:48:36 -0.62, 8.97 56.80 508
6 12/11/2019 01:45:19 -3.86, 178.07 12/11/2019 01:38:06 -4.05, 177.31 86.80 433
7 12/13/2019 16:25:03 3.82, -42.96 12/13/2019 16:15:42 3.73, -43.28 36.32 561
8 12/13/2019 17:13:12 0.62, 125.64 12/13/2019 17:05:06 0.76, 125.06 66.35 486
9 12/13/2019 18:01:25 -5.31, -65.74 12/13/2019 17:54:35 -5.49, -66.59 96.03 410
10 12/16/2019 07:59:16 -29.96,-100.71 12/16/2019 07:49:16 -30.09,-101.17 46.50 600
11 12/16/2019 08:41:10 2.44, 73.21 12/16/2019 08:32:12 2.35, 72.81 45.87 538
12 12/16/2019 09:29:18 2.05,-118.18 12/16/2019 09:21:35 2.20,-118.85 75.83 463
13 12/19/2019 00:09:03 -5.71, 20.77 12/18/2019 23:59:12 -5.64, 20.55 25.40 591
14 12/19/2019 00:57:17 1.07,-170.62 12/19/2019 00:48:42 0.98,-171.11 55.52 515
15 12/19/2019 01:45:25 3.42, -2.01 12/19/2019 01:38:05 3.58, -2.76 85.36 440




NCC Satellite Simultaneous Nadir Overpasses (SNOs) Prediction Service
